Weather Roundup
Issued by NWS Chicago, IL

Home | Current Version | Previous Version | Graphics & Text | Print | Product List | Glossary On
Versions: 1 2 3 4 5 6 7 8 9 10 11 12 13 14 15 16 17 18 19 20 21 22 23 24 25 26 27 28 29 30 31 32 33 34 35 36 37 38 39 40 41 42 43 44 45 46 47 48 49 50
000
NZUS59 KLOT 280908
HRRLOT

CHICAGO AREA WEATHER ROUNDUP
NATIONAL WEATHER SERVICE CHICAGO/ROMEOVILLE IL
400 AM CDT SAT MAR 28 2015

NOTE: "FAIR" INDICATES FEW OR NO CLOUDS BELOW 12,000 FEET WITH NO
SIGNIFICANT WEATHER AND/OR OBSTRUCTIONS TO VISIBILITY.

* THESE STATIONS ARE NOT UNDER NWS QUALITY CONTROL. THEY ALSO MAY NOT
  REPORT WEATHER SUCH AS PRECIPITATION OR FOG.

ILZ005-006-012>014-019>023-281000-
NORTHEAST ILLINOIS

CITY           SKY/WX    TMP DP  RH WIND       PRES   REMARKS
OHARE          PTCLDY    21  13  71 N6        30.22S WCI  13
MIDWAY           N/A     23  13  65 NW6       30.22S WCI  16
AURORA         CLEAR     15  10  80 W6        30.23S WCI   6
LANSING*       CLEAR     24  11  57 N3        30.22S
JOLIET*        CLEAR     21  16  79 CALM      30.23S
WAUKEGAN       CLEAR     16  13  88 CALM      30.22S
DUPAGE AIRPORT CLEAR     17  11  77 CALM      30.22S
WHEELING       CLEAR     19  12  74 CALM      30.24S
KANKAKEE*      CLEAR     21  17  82 NW5       30.23R WCI  15
MORRIS*        CLEAR     17  13  85 NW3       30.23S
LEWIS AIRPORT* CLEAR     18  13  82 N5        30.23R WCI  11
NORTHERLY IS     N/A     25  11  55 N9          N/A  WCI  16
$$

WIZ051-052-058>065-066-070>072-281000-
SOUTHEAST WISCONSIN

CITY           SKY/WX    TMP DP  RH WIND       PRES   REMARKS
MILWAUKEE        N/A     20  11  68 CALM      30.23S
KENOSHA*       CLEAR     19  13  77 NW3       30.23R
RACINE*        CLEAR     17  11  77 CALM      30.25R
BURLINGTON     CLEAR     13  11  92 CALM      30.23R
WAUKESHA       CLEAR     14  10  85 CALM      30.24S
WEST BEND      CLEAR     16  12  86 CALM      30.23S
$$

INZ001>003-010>013-019-020-281000-
NORTHWEST INDIANA

CITY           SKY/WX    TMP DP  RH WIND       PRES   REMARKS
GARY*          CLEAR     26   9  49 N7        30.23R WCI  18
MICHIGAN CITY* NOT AVBL
RENSSELAER*    NOT AVBL
VALPARAISO     CLEAR     18  10  71 CALM      30.22R
$$

LMZ740>746-281000-
SOUTHERN LAKE MICHIGAN

STATION/POSITION TIME  SKY/WX   TEMP WIND        PRES    VSBY
                                AIR  DIR/SP/G
                 (UTC)          (F)  (DEG/KT/KT) (MB)    (MI)
HARRISON CRIB    0800            25   20/ 14/ 17   N/A
BURNHAM HARBOR   0900            25   10/  8/ 14   N/A
CALUMET HARBOR   0800            26  360/ 11/ 14 1022.0F
BURNS HARBOR     0800            25   30/ 13/ 17 1023.4R
MICHIGAN CITY    0800            22   20/ 12/ 14   N/A
$$

ABBREVIATIONS USED IN REMARKS
   TC - TEMPERATURE IN CELSIUS
  WCI - WIND CHILL INDEX
   HX - HEAT INDEX
  VSB - VISIBILITY
$$



USA.gov is the U.S. government's official web portal to all federal, state and local government web resources and services.